Location: Csohesd
(46.2500°N, 22.6167°E)
Time: 12:54:02
(UTC+00:00)

CZ-2C R/B - Pass Details

Date: 21 October 2021
Orbit: 703 x 908 km, 98.1° (Epoch: 06 December)

Event Time Altitude Azimuth Distance (km) Brightness Sun altitude
Rises 15:54:36 0° 175° (S) 3,518 6.5 -4.5°
Reaches altitude 10° 15:57:03 10° 179° (S) 2,586 5.9 -5.0°
Maximum altitude 16:02:48 62° 259° (W) 1,019 4.1 -5.9°
Drops below altitude 10° 16:08:31 10° 340° (NNW) 2,565 5.9 -6.9°
Sets 16:10:56 0° 344° (NNW) 3,488 6.5 -7.3°
